Jonesboro, AR

2:41 PM CDT on May 23, 2018 (GMT -0500)
Jonesboro Municipal

Weather History for KJBR - June, 2013

Change the Weather History Date:

Thursday, June 27, 2013

  Actual Average Record
Temperature  
Mean Temperature 88 °F 80 °F  
Max Temperature 101 °F 91 °F 108 °F (1901)
Min Temperature 75 °F 69 °F 55 °F (1974)
Degree Days  
Heating Degree Days 0 0  
Month to date heating degree days 0 0  
Since 1 June heating degree days 0 0  
Since 1 July heating degree days 3556 3652  
Cooling Degree Days 23 15  
Month to date cooling degree days 403 337  
Year to date cooling degree days 633 550  
Since 1 June cooling degree days 403 337  
Growing Degree Days 38 (Base 50)    
Moisture  
Dew Point 73 °F    
Average Humidity 66    
Maximum Humidity 87    
Minimum Humidity 45    
Precipitation  
Precipitation 0.13 in 0.16 in 2.07 in (1898)
Month to date precipitation 3.89 3.23  
Year to date precipitation 30.23 24.51  
Snow  
Snow 0.00 in - - ()
Month to date snowfall 0.0  
Since 1 June snowfall 0.0  
Snow Depth 0.00 in    
Sea Level Pressure  
Sea Level Pressure 29.87 in    
Wind  
Wind Speed 7 mph (West)    
Max Wind Speed 20 mph    
Max Gust Speed 28 mph    
Visibility 10 miles    
Events Rain , Thunderstorm    
T = Trace of Precipitation, MM = Missing Value Source: NWS Daily Summary

Daily Weather History Graph

Daily Weather History Graph

Search for Another Location

Airport or City:

Astronomy

Jun. 27, 2013 Rise Set
Actual Time 5:48 AM CDT 8:22 PM CDT
Civil Twilight 5:18 AM CDT 8:53 PM CDT
Nautical Twilight 4:40 AM CDT 9:30 PM CDT
Astronomical Twilight 3:59 AM CDT 10:11 PM CDT
Moon 11:31 PM CDT (6/27) 10:39 AM CDT (6/27)
Length of Visible Light 15h 34m
Length of Day
14h 34m
Waning Gibbous, 76% of the Moon is Illuminated
Jun 27
Waning Gibbous
Jun 29
Last Quarter
Jul 8
New
Jul 15
First Quarter
Jul 22
Full

Hourly Weather History & Observations

Time (CDT) Temp. Heat Index Dew Point Humidity Pressure Visibility Wind Dir Wind Speed Gust Speed Precip Events Conditions
12:53 AM 84.0 °F 89.0 °F 71.1 °F 65% 29.85 in 10.0 mi WSW 12.7 mph - N/A   Clear
1:53 AM 84.0 °F 89.0 °F 71.1 °F 65% 29.85 in 10.0 mi WSW 11.5 mph 20.7 mph N/A   Clear
2:53 AM 82.9 °F 88.0 °F 72.0 °F 69% 29.86 in 10.0 mi West 9.2 mph - N/A   Clear
3:53 AM 82.0 °F 86.7 °F 72.0 °F 71% 29.86 in 10.0 mi WSW 9.2 mph - N/A   Clear
4:53 AM 82.0 °F 86.7 °F 72.0 °F 71% 29.87 in 10.0 mi West 9.2 mph - N/A   Clear
5:53 AM 81.0 °F 85.8 °F 73.0 °F 77% 29.88 in 10.0 mi West 8.1 mph - N/A   Clear
6:53 AM 81.0 °F 85.8 °F 73.0 °F 77% 29.89 in 10.0 mi West 6.9 mph - N/A   Clear
7:53 AM 84.0 °F 91.2 °F 73.9 °F 72% 29.90 in 10.0 mi West 8.1 mph - N/A   Clear
8:53 AM 87.1 °F 96.3 °F 75.0 °F 67% 29.90 in 10.0 mi WNW 9.2 mph - N/A   Clear
9:53 AM 91.9 °F 103.9 °F 75.9 °F 59% 29.91 in 10.0 mi West 5.8 mph - N/A   Clear
10:53 AM 91.9 °F 103.9 °F 75.9 °F 59% 29.91 in 10.0 mi WNW 6.9 mph - N/A   Partly Cloudy
11:53 AM 93.9 °F 108.4 °F 77.0 °F 58% 29.91 in 10.0 mi Variable 3.5 mph - N/A   Scattered Clouds
12:53 PM 97.0 °F 110.9 °F 75.9 °F 51% 29.89 in 10.0 mi NW 4.6 mph - N/A   Partly Cloudy
1:53 PM 98.1 °F 111.2 °F 75.0 °F 48% 29.88 in 10.0 mi Variable 4.6 mph - N/A   Partly Cloudy
2:53 PM 100.0 °F 113.6 °F 75.0 °F 45% 29.87 in 10.0 mi WSW 4.6 mph - N/A   Partly Cloudy
3:53 PM 96.1 °F 108.6 °F 75.0 °F 51% 29.85 in 10.0 mi Variable 3.5 mph - N/A Thunderstorm Thunderstorm
4:32 PM 89.6 °F 98.2 °F 73.4 °F 59% 29.87 in 10.0 mi South 9.2 mph - N/A Thunderstorm Clear
4:53 PM 82.9 °F 88.8 °F 73.0 °F 72% 29.88 in 3.0 mi Variable 6.9 mph 27.6 mph 0.08 in Rain , Thunderstorm Heavy Thunderstorms and Rain
5:53 PM 77.0 °F - 69.1 °F 76% 29.88 in 10.0 mi SW 8.1 mph 18.4 mph 0.05 in Thunderstorm Thunderstorm
6:27 PM 78.8 °F - 69.8 °F 74% 29.87 in 10.0 mi West 6.9 mph - N/A   Scattered Clouds
6:42 PM 78.8 °F - 69.8 °F 74% 29.87 in 10.0 mi West 3.5 mph - N/A Thunderstorm Clear
6:53 PM 79.0 °F - 70.0 °F 74% 29.88 in 10.0 mi WSW 16.1 mph 20.7 mph N/A Thunderstorm Clear
7:10 PM 78.8 °F - 69.8 °F 74% 29.88 in 10.0 mi West 8.1 mph - N/A   Clear
7:53 PM 79.0 °F - 71.1 °F 77% 29.85 in 10.0 mi SW 8.1 mph - N/A   Unknown
8:53 PM 78.1 °F - 71.1 °F 79% 29.84 in 10.0 mi West 5.8 mph - N/A   Clear
9:53 PM 78.1 °F - 69.1 °F 74% 29.81 in 10.0 mi Calm Calm - N/A   Clear
10:53 PM 75.9 °F - 71.1 °F 85% 29.83 in 10.0 mi West 4.6 mph - N/A   Clear
11:53 PM 78.1 °F - 70.0 °F 76% 29.86 in 10.0 mi West 6.9 mph - N/A   Clear